QPF
0.02 0.02 0.02 0.02 0.03 0.03 0.04 0.04 0.03 0.04 0.03 0.04 0.04 0.04 0.04 0.05 0.06 0.05 0.04 0.03 0.03 0.03 0.02 0.01 0.01 0.01 0.01 0.01 0.01 0.01 0.01 0.01 0.01 0.02 0.02 0.02 0.02 0.01 0.01 0.01 0.01 0.01 0.01 0.01
0.01 0.01 0.01 0.02 0.02 0.03 0.03 0.04 0.04 0.02 0.03 0.04 0.04 0.04 0.03 0.04 0.06 0.05 0.04 0.03 0.03 0.03 0.03 0.02 0.02 0.01 0.01 0.01 0.01 0.01 0.01 0.01 0.01 0.01 0.02 0.02 0.03 0.03 0.02 0.02 0.02 0.01 0.01 0.01
0.01 0.01 0.02 0.03 0.03 0.03 0.04 0.05 0.04 0.04 0.05 0.04 0.03 0.04 0.04 0.04 0.05 0.06 0.04 0.04 0.03 0.04 0.04 0.03 0.03 0.02 0.02 0.01 0.01 0.01 0.01 0.01 0.01 0.01 0.01 0.02 0.02 0.03 0.03 0.03 0.02 0.01 0.01 0.01
0.01 0.01 0.02 0.04 0.03 0.03 0.03 0.05 0.05 0.04 0.04 0.04 0.04 0.05 0.04 0.04 0.04 0.05 0.04 0.04 0.03 0.03 0.05 0.03 0.02 0.02 0.02 0.02 0.02 0.01 0.01 0.01 0.01 0.01 0.01 0.01 0.02 0.02 0.02 0.02 0.02 0.02 0.02 0.01
0.01 0.02 0.02 0.02 0.02 0.03 0.03 0.04 0.04 0.03 0.03 0.03 0.03 0.03 0.03 0.03 0.03 0.04 0.04 0.04 0.04 0.03 0.05 0.05 0.03 0.02 0.03 0.03 0.04 0.03 0.02 0.02 0.02 0.02 0.02 0.02 0.01 0.02 0.02 0.02 0.02 0.02 0.01 0.01
0.01 0.01 0.02 0.02 0.01 0.01 0.02 0.03 0.02 0.02 0.03 0.03 0.02 0.02 0.03 0.03 0.03 0.03 0.03 0.04 0.04 0.04 0.05 0.06 0.05 0.04 0.04 0.04 0.05 0.06 0.05 0.03 0.03 0.03 0.02 0.01 0.01 0.01 0.02 0.02 0.02 0.02 0.01 0.01
0.01 0.01 0.02 0.02 0.01 0.00 0.02 0.03 0.02 0.02 0.03 0.02 0.03 0.04 0.04 0.03 0.03 0.03 0.03 0.04 0.05 0.04 0.05 0.06 0.06 0.04 0.04 0.04 0.05 0.06 0.07 0.06 0.04 0.03 0.02 0.01 0.01 0.01 0.02 0.02 0.02 0.02 0.01 0.01
0.01 0.01 0.01 0.01 0.01 0.02 0.03 0.02 0.02 0.02 0.02 0.02 0.02 0.02 0.02 0.02 0.02 0.02 0.02 0.03 0.03 0.04 0.05 0.05 0.06 0.04 0.03 0.04 0.04 0.04 0.05 0.06 0.05 0.04 0.02 0.02 0.01 0.01 0.01 0.02 0.02 0.02 0.01 0.01
0.02 0.02 0.02 0.02 0.02 0.03 0.03 0.02 0.02 0.02 0.02 0.02 0.02 0.02 0.02 0.02 0.02 0.02 0.02 0.02 0.03 0.03 0.04 0.04 0.04 0.04 0.03 0.03 0.03 0.03 0.04 0.04 0.04 0.04 0.03 0.03 0.02 0.02 0.02 0.02 0.02 0.01 0.01 0.01
0.01 0.01 0.01 0.01 0.01 0.01 0.01 0.02 0.02 0.02 0.02 0.02 0.02 0.02 0.02 0.01 0.02 0.02 0.02 0.02 0.02 0.03 0.03 0.04 0.03 0.04 0.04 0.03 0.02 0.03 0.03 0.03 0.04 0.04 0.03 0.03 0.03 0.02 0.02 0.02 0.02 0.02 0.02 0.01
0.01 0.01 0.01 0.01 0.01 0.01 0.01 0.01 0.01 0.01 0.01 0.01 0.02 0.02 0.02 0.02 0.02 0.02 0.02 0.02 0.03 0.04 0.05 0.05 0.05 0.04 0.05 0.03 0.02 0.02 0.02 0.03 0.03 0.03 0.04 0.02 0.02 0.02 0.02 0.02 0.02 0.03 0.03 0.02
0.01 0.01 0.02 0.01 0.01 0.01 0.01 0.01 0.01 0.01 0.01 0.01 0.02 0.02 0.02 0.02 0.02 0.03 0.03 0.03 0.03 0.04 0.06 0.07 0.06 0.06 0.06 0.05 0.03 0.03 0.03 0.03 0.03 0.03 0.04 0.03 0.03 0.03 0.04 0.03 0.03 0.03 0.03 0.03
0.02 0.01 0.01 0.01 0.00 0.00 0.01 0.01 0.01 0.01 0.01 0.01 0.01 0.02 0.02 0.02 0.02 0.03 0.03 0.03 0.04 0.06 0.06 0.07 0.07 0.07 0.07 0.07 0.05 0.04 0.04 0.03 0.03 0.04 0.04 0.04 0.03 0.03 0.03 0.03 0.03 0.03 0.03 0.02
0.01 0.01 0.01 0.01 0.01 0.01 0.01 0.01 0.01 0.01 0.01 0.01 0.01 0.01 0.01 0.02 0.02 0.02 0.03 0.04 0.05 0.05 0.05 0.06 0.07 0.07 0.08 0.07 0.06 0.05 0.05 0.05 0.05 0.05 0.04 0.04 0.05 0.04 0.03 0.02 0.02 0.02 0.02 0.02
0.01 0.01 0.01 0.01 0.01 0.00 0.00 0.00 0.00 0.00 0.00 0.01 0.01 0.01 0.01 0.02 0.02 0.02 0.03 0.04 0.04 0.04 0.04 0.04 0.05 0.05 0.06 0.06 0.06 0.05 0.05 0.04 0.04 0.04 0.04 0.04 0.04 0.04 0.04 0.03 0.02 0.02 0.02 0.02
0.00 0.00 0.00 0.00 0.00 0.00 0.00 0.00 0.01 0.01 0.01 0.01 0.01 0.01 0.02 0.02 0.02 0.02 0.02 0.03 0.03 0.04 0.04 0.04 0.04 0.04 0.04 0.05 0.05 0.04 0.04 0.04 0.04 0.03 0.03 0.03 0.03 0.03 0.04 0.03 0.03 0.02 0.02 0.03
0.00 0.00 0.00 0.00 0.00 0.01 0.01 0.01 0.01 0.01 0.01 0.01 0.01 0.02 0.02 0.02 0.01 0.02 0.02 0.02 0.03 0.03 0.04 0.03 0.03 0.03 0.03 0.03 0.03 0.03 0.02 0.03 0.03 0.03 0.03 0.03 0.03 0.03 0.03 0.03 0.03 0.03 0.02 0.02
0.01 0.01 0.01 0.01 0.01 0.01 0.01 0.01 0.01 0.01 0.01 0.01 0.01 0.01 0.02 0.02 0.02 0.02 0.02 0.02 0.02 0.02 0.02 0.03 0.03 0.03 0.02 0.02 0.02 0.02 0.02 0.02 0.02 0.03 0.03 0.02 0.03 0.03 0.03 0.03 0.03 0.03 0.02 0.02
0.01 0.01 0.01 0.01 0.01 0.01 0.01 0.01 0.01 0.01 0.01 0.01 0.01 0.02 0.02 0.02 0.03 0.03 0.02 0.02 0.02 0.02 0.02 0.02 0.02 0.02 0.02 0.02 0.02 0.02 0.02 0.02 0.02 0.02 0.03 0.03 0.03 0.03 0.03 0.03 0.03 0.02 0.02 0.02
0.01 0.01 0.01 0.01 0.01 0.01 0.01 0.01 0.01 0.02 0.02 0.02 0.02 0.02 0.02 0.02 0.02 0.02 0.02 0.02 0.03 0.03 0.03 0.02 0.02 0.02 0.02 0.02 0.02 0.02 0.02 0.02 0.02 0.02 0.02 0.02 0.03 0.02 0.02 0.02 0.02 0.02 0.02 0.01
0.00 0.00 0.01 0.01 0.01 0.01 0.01 0.01 0.01 0.01 0.02 0.02 0.02 0.02 0.02 0.02 0.02 0.02 0.02 0.02 0.03 0.02 0.02 0.02 0.02 0.03 0.03 0.03 0.02 0.02 0.02 0.02 0.02 0.02 0.02 0.02 0.02 0.02 0.02 0.02 0.02 0.02 0.02 0.01
0.00 0.00 0.00 0.00 0.00 0.00 0.01 0.01 0.01 0.01 0.01 0.01 0.01 0.01 0.01 0.01 0.01 0.01 0.01 0.02 0.02 0.02 0.02 0.02 0.02 0.03 0.03 0.03 0.02 0.02 0.02 0.02 0.02 0.03 0.03 0.02 0.02 0.02 0.02 0.02 0.02 0.01 0.02 0.02
0.01 0.00 0.00 0.00 0.01 0.00 0.00 0.01 0.01 0.01 0.01 0.01 0.01 0.01 0.01 0.01 0.01 0.01 0.01 0.01 0.02 0.02 0.02 0.02 0.02 0.03 0.03 0.03 0.02 0.02 0.02 0.02 0.02 0.02 0.03 0.03 0.03 0.02 0.02 0.02 0.02 0.02 0.02 0.02
0.01 0.00 0.01 0.01 0.01 0.00 0.00 0.00 0.01 0.01 0.01 0.01 0.01 0.01 0.01 0.01 0.01 0.01 0.01 0.01 0.01 0.01 0.01 0.02 0.02 0.02 0.02 0.02 0.02 0.02 0.02 0.02 0.02 0.02 0.02 0.03 0.03 0.03 0.03 0.02 0.02 0.02 0.02 0.02
0.01 0.01 0.01 0.00 0.00 0.00 0.00 0.00 0.00 0.00 0.00 0.00 0.00 0.00 0.00 0.00 0.01 0.00 0.00 0.01 0.01 0.01 0.01 0.01 0.02 0.02 0.02 0.02 0.02 0.02 0.02 0.02 0.02 0.02 0.02 0.03 0.03 0.03 0.03 0.03 0.03 0.03 0.03 0.03
0.01 0.01 0.01 0.01 0.00 0.00 0.00 0.00 0.00 0.00 0.00 0.00 0.00 0.00 0.00 0.00 0.00 0.00 0.00 0.00 0.00 0.01 0.01 0.01 0.01 0.01 0.01 0.01 0.02 0.02 0.02 0.02 0.02 0.02 0.02 0.02 0.02 0.02 0.02 0.02 0.02 0.02 0.02 0.02
0.01 0.01 0.01 0.00 0.00 0.00 0.00 0.00 0.00 0.00 0.00 0.00 0.00 0.00 0.00 0.00 0.00 0.00 0.00 0.00 0.00 0.00 0.00 0.01 0.01 0.01 0.01 0.01 0.01 0.01 0.02 0.02 0.01 0.02 0.02 0.02 0.02 0.02 0.02 0.02 0.02 0.02 0.02 0.02
MSLP
1017.79 1017.17 1016.71 1016.42 1016.27 1016.23 1016.25 1016.31 1016.37 1016.41 1016.42 1016.40 1016.36 1016.28 1016.18 1016.02 1015.80 1015.48 1015.05 1014.50 1013.83 1013.07 1012.27 1011.48 1010.75 1010.14 1009.68 1009.41 1009.33 1009.41 1009.62 1009.92 1010.27 1010.62 1010.95 1011.24 1011.49 1011.71 1011.92 1012.14 1012.38 1012.68 1013.03 1013.45
1018.95 1018.36 1017.93 1017.67 1017.55 1017.54 1017.61 1017.71 1017.81 1017.89 1017.92 1017.90 1017.83 1017.70 1017.50 1017.23 1016.86 1016.39 1015.80 1015.09 1014.28 1013.39 1012.47 1011.57 1010.74 1010.04 1009.50 1009.16 1009.02 1009.07 1009.27 1009.59 1009.98 1010.41 1010.84 1011.24 1011.60 1011.93 1012.22 1012.49 1012.77 1013.07 1013.41 1013.80
1020.21 1019.71 1019.35 1019.15 1019.09 1019.13 1019.23 1019.36 1019.46 1019.52 1019.52 1019.43 1019.26 1019.01 1018.66 1018.23 1017.69 1017.05 1016.31 1015.46 1014.52 1013.53 1012.52 1011.53 1010.62 1009.83 1009.21 1008.78 1008.57 1008.56 1008.73 1009.05 1009.49 1010.00 1010.54 1011.07 1011.58 1012.04 1012.46 1012.83 1013.18 1013.51 1013.87 1014.25
1021.56 1021.16 1020.91 1020.79 1020.79 1020.88 1021.00 1021.12 1021.19 1021.19 1021.09 1020.89 1020.58 1020.16 1019.64 1019.02 1018.31 1017.51 1016.63 1015.66 1014.63 1013.56 1012.47 1011.42 1010.43 1009.55 1008.84 1008.31 1008.00 1007.90 1008.02 1008.33 1008.79 1009.37 1010.02 1010.69 1011.36 1011.99 1012.56 1013.07 1013.52 1013.93 1014.32 1014.72
1022.97 1022.69 1022.53 1022.49 1022.54 1022.65 1022.76 1022.85 1022.86 1022.77 1022.55 1022.20 1021.73 1021.13 1020.43 1019.64 1018.77 1017.84 1016.84 1015.79 1014.70 1013.57 1012.44 1011.33 1010.27 1009.31 1008.48 1007.84 1007.41 1007.20 1007.23 1007.49 1007.95 1008.57 1009.31 1010.12 1010.95 1011.75 1012.49 1013.15 1013.74 1014.25 1014.70 1015.14
1024.42 1024.23 1024.14 1024.14 1024.21 1024.31 1024.39 1024.42 1024.34 1024.14 1023.79 1023.30 1022.66 1021.90 1021.04 1020.11 1019.12 1018.08 1017.01 1015.91 1014.79 1013.64 1012.48 1011.32 1010.21 1009.16 1008.23 1007.46 1006.89 1006.56 1006.48 1006.66 1007.08 1007.71 1008.52 1009.43 1010.39 1011.35 1012.25 1013.07 1013.79 1014.42 1014.96 1015.45
1025.87 1025.73 1025.66 1025.67 1025.71 1025.76 1025.78 1025.71 1025.54 1025.22 1024.74 1024.11 1023.34 1022.44 1021.47 1020.43 1019.35 1018.26 1017.15 1016.04 1014.91 1013.76 1012.60 1011.43 1010.27 1009.16 1008.14 1007.25 1006.55 1006.09 1005.89 1005.97 1006.32 1006.93 1007.76 1008.73 1009.79 1010.87 1011.91 1012.86 1013.72 1014.45 1015.09 1015.64
1027.26 1027.12 1027.04 1026.99 1026.97 1026.94 1026.86 1026.68 1026.39 1025.95 1025.35 1024.61 1023.72 1022.73 1021.67 1020.56 1019.44 1018.32 1017.21 1016.11 1015.00 1013.89 1012.75 1011.59 1010.43 1009.28 1008.20 1007.23 1006.43 1005.85 1005.54 1005.52 1005.80 1006.35 1007.16 1008.15 1009.25 1010.40 1011.54 1012.60 1013.55 1014.39 1015.11 1015.73
1028.53 1028.36 1028.21 1028.08 1027.95 1027.80 1027.60 1027.30 1026.88 1026.32 1025.62 1024.77 1023.80 1022.73 1021.61 1020.46 1019.32 1018.19 1017.10 1016.03 1014.97 1013.90 1012.82 1011.70 1010.57 1009.44 1008.34 1007.34 1006.49 1005.85 1005.46 1005.35 1005.56 1006.05 1006.81 1007.77 1008.88 1010.05 1011.22 1012.34 1013.36 1014.27 1015.07 1015.76
1029.61 1029.38 1029.14 1028.90 1028.65 1028.36 1028.02 1027.58 1027.04 1026.37 1025.56 1024.62 1023.57 1022.45 1021.28 1020.09 1018.93 1017.80 1016.72 1015.68 1014.67 1013.67 1012.65 1011.62 1010.56 1009.49 1008.45 1007.49 1006.65 1006.00 1005.59 1005.44 1005.59 1006.02 1006.72 1007.63 1008.70 1009.85 1011.02 1012.15 1013.20 1014.16 1015.01 1015.76
1030.48 1030.17 1029.84 1029.48 1029.09 1028.66 1028.17 1027.60 1026.94 1026.15 1025.24 1024.22 1023.09 1021.90 1020.67 1019.45 1018.25 1017.11 1016.02 1015.00 1014.02 1013.08 1012.14 1011.20 1010.25 1009.30 1008.38 1007.52 1006.77 1006.19 1005.81 1005.68 1005.81 1006.20 1006.85 1007.70 1008.70 1009.79 1010.92 1012.04 1013.09 1014.07 1014.95 1015.75
1031.11 1030.74 1030.31 1029.83 1029.32 1028.76 1028.14 1027.45 1026.66 1025.77 1024.77 1023.65 1022.44 1021.17 1019.87 1018.58 1017.32 1016.12 1015.00 1013.95 1012.99 1012.08 1011.21 1010.38 1009.56 1008.76 1008.00 1007.30 1006.70 1006.25 1005.98 1005.91 1006.07 1006.47 1007.08 1007.87 1008.81 1009.84 1010.92 1011.99 1013.03 1014.01 1014.92 1015.75
1031.54 1031.11 1030.61 1030.05 1029.43 1028.76 1028.03 1027.23 1026.34 1025.35 1024.25 1023.05 1021.75 1020.39 1018.99 1017.60 1016.24 1014.95 1013.76 1012.66 1011.67 1010.76 1009.95 1009.19 1008.50 1007.86 1007.28 1006.78 1006.37 1006.10 1005.97 1006.02 1006.26 1006.69 1007.30 1008.07 1008.96 1009.93 1010.95 1011.98 1013.00 1013.97 1014.89 1015.76
1031.82 1031.36 1030.80 1030.17 1029.48 1028.74 1027.93 1027.04 1026.07 1025.00 1023.82 1022.53 1021.14 1019.68 1018.18 1016.67 1015.20 1013.79 1012.48 1011.29 1010.23 1009.30 1008.49 1007.79 1007.20 1006.71 1006.30 1005.99 1005.80 1005.71 1005.77 1005.96 1006.31 1006.81 1007.45 1008.21 1009.08 1010.02 1011.00 1012.00 1012.99 1013.96 1014.90 1015.79
1032.00 1031.52 1030.94 1030.27 1029.54 1028.75 1027.89 1026.95 1025.93 1024.80 1023.55 1022.20 1020.73 1019.19 1017.58 1015.96 1014.36 1012.82 1011.39 1010.08 1008.92 1007.92 1007.09 1006.41 1005.88 1005.49 1005.23 1005.09 1005.08 1005.19 1005.41 1005.76 1006.24 1006.82 1007.52 1008.31 1009.18 1010.11 1011.07 1012.05 1013.04 1014.00 1014.95 1015.86
1032.14 1031.65 1031.06 1030.39 1029.64 1028.83 1027.95 1027.00 1025.95 1024.79 1023.52 1022.12 1020.61 1019.00 1017.32 1015.61 1013.90 1012.25 1010.68 1009.25 1007.98 1006.90 1006.00 1005.30 1004.79 1004.46 1004.29 1004.28 1004.42 1004.68 1005.06 1005.55 1006.15 1006.83 1007.60 1008.44 1009.34 1010.27 1011.23 1012.21 1013.19 1014.16 1015.10 1016.02
1032.26 1031.77 1031.19 1030.52 1029.79 1028.99 1028.11 1027.16 1026.12 1024.98 1023.71 1022.32 1020.80 1019.17 1017.46 1015.69 1013.92 1012.18 1010.52 1008.98 1007.62 1006.44 1005.47 1004.72 1004.19 1003.87 1003.74 1003.81 1004.04 1004.41 1004.91 1005.51 1006.21 1006.98 1007.82 1008.71 1009.64 1010.60 1011.57 1012.54 1013.52 1014.48 1015.41 1016.32
1032.38 1031.89 1031.32 1030.67 1029.96 1029.18 1028.34 1027.42 1026.42 1025.31 1024.08 1022.73 1021.26 1019.66 1017.97 1016.21 1014.42 1012.65 1010.95 1009.35 1007.91 1006.66 1005.62 1004.81 1004.24 1003.90 1003.77 1003.87 1004.14 1004.57 1005.13 1005.81 1006.58 1007.42 1008.31 1009.25 1010.20 1011.18 1012.15 1013.13 1014.09 1015.02 1015.93 1016.80
1032.49 1032.00 1031.44 1030.82 1030.13 1029.39 1028.58 1027.71 1026.76 1025.72 1024.57 1023.29 1021.90 1020.38 1018.77 1017.08 1015.34 1013.61 1011.92 1010.32 1008.86 1007.57 1006.49 1005.64 1005.02 1004.64 1004.50 1004.57 1004.85 1005.29 1005.88 1006.59 1007.39 1008.26 1009.18 1010.13 1011.10 1012.07 1013.04 1013.99 1014.92 1015.81 1016.66 1017.46
1032.57 1032.08 1031.53 1030.92 1030.27 1029.56 1028.80 1027.98 1027.09 1026.12 1025.06 1023.89 1022.60 1021.21 1019.72 1018.14 1016.52 1014.88 1013.27 1011.73 1010.31 1009.04 1007.96 1007.09 1006.45 1006.04 1005.86 1005.91 1006.16 1006.58 1007.15 1007.85 1008.64 1009.51 1010.42 1011.36 1012.31 1013.26 1014.19 1015.09 1015.96 1016.78 1017.55 1018.27
1032.59 1032.11 1031.57 1030.98 1030.34 1029.66 1028.94 1028.17 1027.34 1026.45 1025.48 1024.42 1023.26 1022.01 1020.66 1019.25 1017.78 1016.29 1014.81 1013.38 1012.05 1010.86 1009.82 1008.98 1008.34 1007.92 1007.72 1007.74 1007.95 1008.33 1008.87 1009.52 1010.28 1011.10 1011.97 1012.87 1013.76 1014.65 1015.51 1016.34 1017.12 1017.85 1018.51 1019.12
1032.56 1032.08 1031.55 1030.98 1030.36 1029.70 1029.01 1028.28 1027.50 1026.67 1025.78 1024.82 1023.79 1022.68 1021.49 1020.25 1018.95 1017.64 1016.33 1015.06 1013.87 1012.79 1011.85 1011.07 1010.48 1010.08 1009.87 1009.87 1010.04 1010.38 1010.86 1011.46 1012.14 1012.89 1013.69 1014.50 1015.31 1016.10 1016.87 1017.59 1018.26 1018.88 1019.43 1019.91
1032.47 1032.01 1031.49 1030.93 1030.33 1029.69 1029.02 1028.31 1027.57 1026.79 1025.97 1025.09 1024.17 1023.18 1022.15 1021.07 1019.95 1018.82 1017.70 1016.61 1015.59 1014.65 1013.84 1013.16 1012.64 1012.29 1012.10 1012.10 1012.24 1012.54 1012.95 1013.47 1014.07 1014.72 1015.41 1016.11 1016.81 1017.48 1018.13 1018.72 1019.27 1019.76 1020.19 1020.55
1032.36 1031.91 1031.42 1030.88 1030.29 1029.66 1029.00 1028.31 1027.59 1026.84 1026.06 1025.25 1024.41 1023.53 1022.62 1021.69 1020.74 1019.79 1018.85 1017.94 1017.09 1016.32 1015.65 1015.10 1014.67 1014.39 1014.25 1014.25 1014.38 1014.63 1014.98 1015.41 1015.91 1016.45 1017.01 1017.58 1018.14 1018.68 1019.18 1019.64 1020.06 1020.42 1020.73 1020.98
1032.25 1031.83 1031.36 1030.83 1030.27 1029.65 1029.00 1028.32 1027.61 1026.88 1026.13 1025.36 1024.58 1023.78 1022.98 1022.17 1021.36 1020.56 1019.79 1019.05 1018.38 1017.77 1017.25 1016.82 1016.50 1016.30 1016.20 1016.22 1016.34 1016.55 1016.84 1017.18 1017.57 1017.99 1018.42 1018.84 1019.25 1019.64 1019.99 1020.31 1020.59 1020.84 1021.03 1021.19
1032.16 1031.77 1031.33 1030.83 1030.28 1029.68 1029.04 1028.37 1027.67 1026.95 1026.22 1025.49 1024.75 1024.01 1023.29 1022.58 1021.89 1021.22 1020.59 1020.01 1019.49 1019.03 1018.64 1018.34 1018.12 1017.99 1017.94 1017.98 1018.09 1018.26 1018.48 1018.74 1019.02 1019.31 1019.60 1019.87 1020.13 1020.37 1020.58 1020.77 1020.92 1021.05 1021.15 1021.22
1032.11 1031.75 1031.34 1030.87 1030.34 1029.76 1029.14 1028.48 1027.80 1027.10 1026.39 1025.68 1024.98 1024.30 1023.65 1023.02 1022.42 1021.87 1021.36 1020.91 1020.51 1020.17 1019.91 1019.70 1019.57 1019.50 1019.50 1019.55 1019.64 1019.77 1019.93 1020.09 1020.27 1020.43 1020.59 1020.73 1020.84 1020.94 1021.01 1021.07 1021.11 1021.13 1021.15 1021.15
Thickness
5299 5304 5306 5307 5310 5314 5314 5316 5319 5325 5325 5325 5326 5332 5341 5349 5359 5369 5377 5386 5394 5402 5409 5418 5427 5436 5445 5452 5459 5466 5472 5478 5483 5487 5491 5494 5497 5499 5502 5504 5505 5506 5507 5508
5293 5301 5301 5297 5298 5301 5304 5303 5304 5311 5312 5311 5313 5321 5328 5335 5344 5352 5361 5369 5378 5386 5393 5402 5410 5420 5429 5438 5445 5452 5458 5464 5470 5475 5479 5483 5486 5488 5491 5492 5494 5495 5496 5497
5282 5287 5290 5281 5279 5282 5284 5284 5287 5290 5292 5297 5303 5310 5315 5322 5329 5335 5344 5353 5362 5370 5378 5386 5395 5405 5414 5423 5431 5439 5445 5451 5456 5462 5466 5470 5474 5477 5479 5481 5482 5484 5485 5486
5271 5273 5263 5268 5272 5272 5273 5273 5273 5278 5282 5285 5291 5299 5306 5311 5316 5323 5330 5338 5346 5356 5366 5374 5383 5391 5401 5409 5418 5425 5432 5437 5443 5449 5453 5457 5461 5465 5467 5469 5471 5472 5474 5475
5258 5254 5256 5262 5265 5260 5262 5266 5265 5267 5272 5277 5282 5293 5300 5303 5305 5310 5317 5326 5334 5343 5352 5361 5369 5378 5387 5396 5404 5411 5417 5423 5429 5435 5440 5445 5448 5451 5454 5457 5458 5460 5462 5463
5246 5249 5249 5251 5256 5258 5260 5259 5259 5258 5261 5265 5272 5277 5286 5290 5293 5299 5307 5315 5324 5332 5340 5348 5356 5364 5373 5381 5390 5397 5403 5410 5415 5421 5427 5431 5435 5438 5441 5444 5446 5448 5449 5451
5233 5234 5238 5242 5246 5254 5248 5247 5249 5249 5251 5254 5257 5260 5269 5276 5282 5289 5297 5304 5313 5320 5328 5335 5342 5350 5359 5367 5376 5383 5390 5396 5402 5408 5413 5417 5421 5425 5428 5431 5433 5435 5436 5438
5227 5228 5234 5237 5238 5235 5234 5237 5239 5241 5243 5245 5250 5255 5261 5267 5273 5280 5287 5295 5302 5309 5317 5323 5330 5337 5346 5354 5362 5369 5376 5383 5388 5394 5399 5404 5408 5411 5415 5418 5420 5421 5423 5425
5222 5228 5230 5229 5229 5229 5228 5229 5232 5233 5237 5239 5243 5249 5254 5259 5264 5270 5277 5284 5291 5298 5305 5312 5318 5325 5332 5340 5348 5355 5362 5368 5374 5380 5385 5390 5395 5399 5402 5404 5407 5409 5411 5412
5220 5227 5226 5225 5225 5225 5224 5224 5226 5228 5230 5233 5236 5241 5246 5251 5256 5261 5267 5274 5281 5287 5294 5301 5308 5314 5320 5327 5335 5342 5348 5354 5360 5366 5371 5375 5380 5385 5389 5391 5394 5396 5398 5400
5216 5220 5221 5224 5221 5220 5220 5220 5221 5223 5224 5226 5229 5233 5237 5242 5247 5252 5259 5264 5271 5277 5284 5290 5296 5302 5309 5316 5323 5329 5335 5341 5347 5352 5357 5362 5366 5370 5375 5378 5382 5385 5387 5388
5213 5216 5213 5216 5217 5215 5215 5216 5216 5217 5220 5222 5223 5226 5230 5235 5239 5244 5250 5256 5262 5268 5274 5280 5285 5291 5297 5304 5310 5316 5323 5328 5334 5339 5344 5349 5353 5357 5361 5364 5368 5372 5374 5376
5212 5213 5211 5213 5212 5211 5210 5211 5212 5212 5214 5216 5218 5220 5224 5228 5233 5237 5242 5247 5252 5258 5264 5270 5275 5281 5287 5293 5299 5305 5311 5316 5322 5327 5332 5336 5340 5344 5348 5351 5355 5358 5361 5364
5209 5208 5209 5208 5207 5207 5206 5207 5207 5208 5209 5211 5212 5215 5218 5221 5225 5230 5235 5239 5244 5249 5255 5260 5265 5271 5276 5282 5289 5294 5300 5305 5310 5315 5319 5323 5326 5330 5334 5337 5340 5343 5346 5349
5205 5204 5202 5203 5202 5202 5202 5202 5203 5203 5204 5206 5207 5209 5211 5215 5218 5222 5227 5232 5237 5241 5246 5250 5256 5261 5267 5273 5279 5284 5289 5294 5298 5302 5306 5310 5313 5317 5320 5323 5326 5328 5331 5335
5203 5201 5200 5199 5198 5198 5197 5197 5197 5199 5200 5200 5201 5202 5205 5208 5211 5215 5219 5223 5227 5232 5236 5241 5246 5252 5257 5263 5268 5272 5277 5282 5286 5290 5294 5297 5300 5304 5307 5310 5312 5315 5317 5320
5198 5198 5197 5195 5194 5192 5191 5191 5192 5193 5193 5193 5194 5196 5198 5201 5204 5208 5212 5216 5219 5223 5227 5232 5237 5242 5247 5252 5257 5261 5265 5270 5274 5278 5281 5284 5288 5291 5294 5297 5299 5302 5304 5308
5194 5193 5192 5190 5189 5188 5188 5187 5187 5187 5187 5188 5189 5191 5192 5194 5197 5201 5204 5208 5212 5216 5220 5224 5229 5234 5238 5242 5247 5251 5255 5258 5262 5265 5269 5272 5276 5279 5282 5284 5287 5289 5292 5295
5191 5189 5188 5187 5185 5184 5183 5182 5181 5181 5181 5182 5183 5184 5185 5188 5190 5193 5197 5200 5204 5208 5212 5216 5221 5225 5229 5232 5237 5241 5244 5247 5250 5253 5256 5260 5263 5266 5269 5271 5274 5277 5280 5283
5187 5186 5184 5182 5180 5178 5177 5177 5176 5176 5176 5176 5177 5178 5180 5182 5184 5187 5190 5192 5195 5198 5203 5207 5212 5216 5220 5223 5228 5230 5234 5237 5239 5242 5245 5248 5251 5254 5257 5260 5263 5265 5268 5270
5182 5180 5179 5177 5175 5173 5172 5171 5170 5170 5170 5170 5171 5172 5174 5176 5178 5180 5183 5186 5189 5192 5196 5201 5203 5207 5211 5215 5218 5221 5223 5226 5229 5232 5234 5237 5240 5243 5246 5248 5251 5254 5256 5259
5177 5175 5174 5172 5170 5169 5168 5166 5166 5165 5165 5166 5167 5168 5169 5170 5172 5174 5176 5178 5182 5186 5190 5193 5196 5199 5204 5207 5209 5211 5214 5216 5219 5222 5224 5227 5229 5232 5235 5237 5240 5243 5245 5248
5173 5171 5169 5167 5165 5164 5163 5162 5161 5161 5161 5161 5162 5163 5164 5165 5166 5168 5171 5174 5176 5180 5183 5186 5189 5194 5198 5199 5201 5203 5205 5207 5210 5212 5215 5217 5219 5222 5224 5227 5230 5232 5235 5237
5168 5165 5163 5161 5159 5158 5158 5158 5157 5157 5156 5157 5158 5159 5159 5160 5162 5163 5164 5168 5171 5174 5177 5180 5183 5187 5190 5191 5192 5194 5196 5199 5201 5203 5206 5208 5210 5212 5215 5217 5220 5222 5225 5228
5162 5159 5157 5156 5155 5155 5154 5154 5153 5153 5153 5154 5155 5155 5156 5156 5157 5159 5160 5162 5165 5168 5170 5172 5176 5179 5180 5182 5184 5186 5188 5191 5193 5196 5198 5200 5202 5204 5206 5209 5211 5214 5216 5219
5156 5154 5153 5151 5150 5150 5149 5149 5148 5149 5149 5150 5151 5151 5152 5152 5153 5154 5155 5157 5159 5162 5164 5166 5167 5170 5172 5174 5176 5178 5180 5182 5185 5187 5189 5192 5194 5196 5199 5201 5203 5206 5208 5211
5152 5149 5149 5148 5147 5146 5145 5144 5144 5144 5144 5144 5145 5147 5147 5147 5148 5149 5151 5152 5154 5156 5158 5159 5161 5163 5165 5167 5169 5170 5172 5175 5177 5179 5182 5184 5187 5189 5191 5194 5196 5199 5201 5204